This is the latest recevied weather packets stored in our database for station/object KK6MIG-13. If no packets are shown the sender has not sent any weather packets the latest 10 day(s).
| Time | Temp. | Humidity | Pressure | Rain* | Wind** | Luminosity | Snow |
|---|---|---|---|---|---|---|---|
| 1788037606 | 16.11° C | 8% | 1014.3 hPa | 0 mm | - | 930 W/m² | - |
| 1788037546 | 16.11° C | 10% | 1014.3 hPa | 0 mm | - | 921 W/m² | - |
| 1788037486 | 16.11° C | 11% | 1014.3 hPa | 0 mm | - | 984 W/m² | - |
| 1788037433 | 16.11° C | 15% | 1014.3 hPa | 0 mm | - | 926 W/m² | - |
| 1788037365 | 16.11° C | 17% | 1014.3 hPa | 0 mm | - | 965 W/m² | - |
| 1788037249 | 16.11° C | 15% | 1014.3 hPa | 0 mm | - | 1005 W/m² | - |
| 1788037245 | 16.11° C | 16% | 1014.3 hPa | 0 mm | - | 1005 W/m² | - |
| 1788037121 | 16.11° C | 17% | 1014.3 hPa | 0 mm | - | 1005 W/m² | - |
| 1788037054 | 16.11° C | 13% | 1014.3 hPa | 0 mm | - | 947 W/m² | - |
| 1788036995 | 16.11° C | 12% | 1014.3 hPa | 0 mm | - | 981 W/m² | - |
| 1788036935 | 16.11° C | 13% | 1014.3 hPa | 0 mm | - | 997 W/m² | - |
| 1788036874 | 16.11° C | 12% | 1014.3 hPa | 0 mm | - | 942 W/m² | - |
| 1788036814 | 16.11° C | 11% | 1014.3 hPa | 0 mm | - | 942 W/m² | - |
| 1788036748 | 16.11° C | 11% | 1014.3 hPa | 0 mm | - | 942 W/m² | - |
| 1788036688 | 16.11° C | 9% | 1014.3 hPa | 0 mm | - | 991 W/m² | - |
| 1788036628 | 15.56° C | 10% | 1014.3 hPa | 0 mm | - | 499 W/m² | - |
| 1788036569 | 15.56° C | 13% | 1014.4 hPa | 0 mm | - | 499 W/m² | - |
| 1788036508 | 16.11° C | 15% | 1014.4 hPa | 0 mm | - | 499 W/m² | - |
| 1788036442 | 16.11° C | 13% | 1014.4 hPa | 0 mm | - | 499 W/m² | - |
| 1788036382 | 16.11° C | 10% | 1014.3 hPa | 0 mm | - | 1042 W/m² | - |
| 1788036323 | 16.11° C | 11% | 1014.3 hPa | 0 mm | - | 1042 W/m² | - |
| 1788036262 | 15.56° C | 7% | 1014.4 hPa | 0 mm | - | 1042 W/m² | - |
| 1788036202 | 15.56° C | 13% | 1014.4 hPa | 0 mm | - | 1042 W/m² | - |
| 1788036142 | 15.56° C | 17% | 1014.3 hPa | 0 mm | - | 1042 W/m² | - |
| 1788036083 | 16.11° C | 21% | 1014.3 hPa | 0 mm | - | 1042 W/m² | - |
* Rain latest hour (hover to see other rain measurements)
** Current wind speed in m/s (hover to see current wind gust speed)